Zurück zum Katalog

STARLINK-35385

AktivKommunikationVLEO
NORAD 65906·PAYLOAD·🇺🇸 United States

Gestartet Oct 7, 2025 von Cape Canaveral Space Force Station

Loading…

Nächste Überflüge (nächste 24 Stunden)

TLE

AktuellSource: CelesTrak SupGP

Epoche: Sep 14, 2026, 14:18 UTC

1 65906C 25224AA  26257.59631944 -.00003256  00000+0 -96234-4 0  2576
2 65906  53.1573 209.5394 0001262  92.7058  66.5266 15.34377550    18

Verfolge STARLINK-35385 in Echtzeit mit AllMySat

Download on the App Store